Weather observations for the past three days for
Huntsville, Huntsville International / Jones Field
Imperial (Metric)
Date Time (cdt) Wind (mph) Vis. (mi.) Weather Sky Cond. Temperature (ºF) Relative Humidity Wind Chill (°F) Heat Index (°F) Pressure Precipitation (in)
Air Dwpt 6 hour altimeter (in) sea level (mb) 1 hr 3 hr 6 hr
Max. Min.
18 02:53 Calm 10.00 Overcast BKN030 OVC047 77 73.9 90% 78 30 1014.8
18 01:53 Calm 10.00 A Few Clouds FEW055 75.9 73 91% 76 30 1015.1
18 00:53 Calm 10.00 Fair CLR 75 73 84 75 94% 73 30 1015.1
17 23:53 SE 5 10.00 A Few Clouds FEW250 75.9 73 91% 76 30.01 1015.3
17 22:53 S 3 10.00 A Few Clouds FEW250 77 73.9 90% 78 30 1014.8
17 21:53 S 3 10.00 Partly Cloudy FEW047 SCT065 SCT250 79 73 82% 82 30 1014.8
17 20:53 S 7 10.00 Mostly Cloudy FEW050 FEW140 BKN250 80.1 73 79% 84 29.99 1014.8
17 19:53 SE 7 10.00 Mostly Cloudy FEW050 SCT140 BKN250 82 73.9 77% 88 29.99 1014.9
17 18:53 S 5 10.00 Mostly Cloudy FEW140 BKN250 82.9 75 93 80.1 77% 90 29.97 1014.0 0.01
17 17:53 SE 9 10.00 Mostly Cloudy FEW130 BKN250 82 73.9 77% 88 29.94 1013.0
17 16:53 NW 7 G 23 10.00 Mostly Cloudy SCT130 BKN250 88 71.1 57% 94 29.94 1013.1
17 15:53 N 8 10.00 Mostly Cloudy FEW031 SCT050 BKN100 BKN250 81 72 74% 85 29.96 1013.8 0.01 0.01
17 14:53 W 12 G 18 10.00 Mostly Cloudy FEW050TCU FEW100 BKN250 91 71.1 52% 98 29.95 1013.2
17 13:53 W 7 G 20 10.00 Mostly Cloudy SCT049 BKN250 90 69.1 50% 95 29.96 1013.6
17 12:53 W 7 10.00 Partly Cloudy SCT045TCU SCT250 91 73.9 91.9 75 57% 101 29.99 1014.6
17 11:53 W 10 10.00 Partly Cloudy SCT042TCU 90 73.9 59% 99 30.02 1015.6
17 10:53 W 8 10.00 A Few Clouds FEW029 FEW250 89.1 75 63% 99 30.03 1015.9
17 09:53 S 6 10.00 A Few Clouds FEW250 84.9 75 72% 93 30.03 1016.0
17 08:53 SW 6 10.00 Partly Cloudy SCT060 SCT250 82 73.9 77% 88 30.03 1016.0
17 07:53 SW 3 10.00 A Few Clouds FEW060 FEW250 78.1 73 85% 81 30.02 1015.7
17 05:53 S 3 10.00 A Few Clouds FEW080 FEW250 73.9 72 94% 30.01 1015.3
17 04:53 Calm 10.00 A Few Clouds FEW055 75 72 90% 74 30.01 1015.3
17 03:53 SW 3 10.00 Fair CLR 75.9 72 88% 76 29.99 1014.7
17 02:53 Vrbl 3 10.00 Fair CLR 75.9 73 91% 76 29.97 1013.9
17 01:53 S 3 10.00 Fair CLR 75.9 73 91% 76 29.96 1013.7
17 00:53 S 5 10.00 Fair CLR 75.9 73 81 75.9 91% 76 29.96 1013.6
16 23:53 SE 5 10.00 Partly Cloudy SCT250 77 73 88% 78 29.98 1014.3
16 22:53 S 3 10.00 Overcast OVC250 77 73 88% 78 29.98 1014.4
16 21:53 SE 3 10.00 Overcast OVC250 77 73 88% 78 29.97 1014.2
16 20:53 SE 5 10.00 Overcast FEW150 OVC250 78.1 72 82% 80 29.97 1014.0
16 19:53 E 6 10.00 Overcast SCT150 OVC250 79 72 79% 82 29.96 1013.8
16 18:53 S 8 10.00 Overcast FEW060 BKN130 OVC250 81 73 91.9 78.1 77% 86 29.98 1014.3 0.69
16 17:53 SE 8 10.00 Overcast SCT060 BKN080 OVC250 81 75.9 85% 87 29.98 1014.3
16 16:53 E 10 10.00 Overcast FEW045 SCT070 OVC250 81 73 77% 86 29.99 1014.6
16 15:53 S 6 10.00 Overcast FEW045 BKN110 OVC250 80.1 75 85% 85 29.97 1014.1 0.12 0.69
16 14:53 SE 14 G 31 0.50 Thunderstorm Heavy Rain SCT020 BKN043CB OVC050 78.1 72 82% 80 29.99 1014.7 0.57
16 13:53 Calm 10.00 Partly Cloudy SCT045TCU SCT170 SCT250 91.9 75 58% 103 29.97 1013.8
16 12:53 Vrbl 7 10.00 Mostly Cloudy SCT040TCU BKN170 BKN250 89.1 75 90 75.9 63% 99 29.99 1014.8
16 11:53 W 5 10.00 Mostly Cloudy SCT036TCU BKN250 89.1 75 63% 99 30.02 1015.7
16 10:53 SE 3 10.00 Partly Cloudy FEW027 FEW055 SCT250 86 73 65% 93 30.03 1015.9
16 09:53 SW 5 10.00 Partly Cloudy FEW050 FEW120 SCT200 82.9 72 70% 88 30.04 1016.2
16 08:53 W 5 10.00 Partly Cloudy FEW050 FEW090 SCT200 80.1 71.1 74% 84 30.05 1016.8
16 07:53 SW 5 10.00 Mostly Cloudy BKN043 BKN060 BKN250 77 71.1 82% 79 30.03 1016.2
16 06:53 W 3 10.00 Mostly Cloudy BKN041 BKN250 75.9 71.1 75.9 73 85% 76 30.01 1015.5
16 05:53 Calm 10.00 Mostly Cloudy BKN043 BKN240 75 71.1 88% 75 30.01 1015.3
16 04:53 S 5 10.00 Fair CLR 73 71.1 94% 29.99 1014.7
16 03:53 S 5 10.00 Fair CLR 73.9 72 94% 30 1015.0
16 02:53 Calm 10.00 Fair CLR 75 73 94% 73 30 1015.1
16 01:53 S 6 10.00 Fair CLR 75.9 73.9 94% 75 30.01 1015.2
16 00:53 Calm 10.00 Fair CLR 75.9 73.9 82.9 75.9 94% 75 30 1015.1
15 23:53 S 3 10.00 Partly Cloudy FEW220 SCT250 77 73.9 90% 78 30 1015.1
15 22:53 S 5 10.00 Partly Cloudy FEW220 SCT250 78.1 75 90% 81 30 1014.8
15 21:53 S 3 10.00 Partly Cloudy FEW220 SCT250 78.1 75 90% 81 29.98 1014.4
15 20:53 Calm 10.00 Mostly Cloudy FEW200 BKN250 80.1 75 85% 85 29.98 1014.2
15 19:53 S 7 10.00 Overcast SCT200 OVC250 81 75 82% 87 29.97 1014.0
15 18:53 SW 6 10.00 Overcast FEW100 OVC210 82.9 75 95 78.1 77% 90 29.97 1014.0 0.31
15 17:53 S 6 10.00 Overcast FEW100 OVC220 84 75 74% 92 29.97 1014.0
15 16:53 SW 3 10.00 Mostly Cloudy FEW060 FEW090 BKN250 82.9 75 77% 90 29.97 1014.1
15 15:53 SW 7 10.00 Mostly Cloudy FEW055 FEW090 BKN250 82.9 75.9 79% 91 29.98 1014.4 0.05 0.31
15 14:53 SW 10 G 29 4.00 Thunderstorm Heavy Rain FEW023 BKN049 BKN065CB OVC250 80.1 72 76% 84 30.01 1015.4 0.26
15 13:53 SW 6 10.00 Thunderstorm SCT055CB SCT250 91.9 71.1 51% 99 30 1015.1
15 12:53 Vrbl 7 10.00 Mostly Cloudy SCT050TCU BKN120 93.9 71.1 95 78.1 48% 101 30.03 1015.8
15 11:53 Vrbl 3 10.00 Partly Cloudy FEW045TCU SCT120 91 71.1 52% 98 30.06 1016.9
15 10:53 W 6 10.00 Partly Cloudy FEW035 SCT120 SCT200 90 73 58% 98 30.07 1017.3
15 09:53 SW 5 10.00 A Few Clouds FEW028 FEW200 86 73.9 67% 94 30.08 1017.8
15 08:53 Calm 10.00 Partly Cloudy SCT190 SCT250 82.9 73 72% 89 30.1 1018.4
15 07:53 Calm 10.00 Mostly Cloudy BKN150 BKN250 80.1 72 76% 84 30.1 1018.4
15 06:53 SW 3 10.00 Mostly Cloudy FEW120 BKN150 BKN250 78.1 73 80.1 75.9 85% 81 30.09 1018.0
15 05:53 Calm 10.00 Partly Cloudy SCT130 SCT200 SCT250 75.9 73 91% 76 30.07 1017.5
15 04:53 Calm 10.00 Fair CLR 77 73.9 90% 78 30.07 1017.2
15 03:53 Calm 10.00 Fair CLR 79 73.9 85% 83 30.06 1016.9
Date Time (cdt) Wind (mph) Vis. (mi.) Weather Sky Cond. Air Dwpt Max. Min. Relative Humidity Wind Chill (°F) Heat Index (°F) altimeter (in) sea level (mb) 1 hr 3 hr 6 hr
6 hour
Temperature (ºF) Pressure Precipitation (in)